TimeMDT,TemperatureF,Dew PointF,Humidity,Sea Level PressureIn,VisibilityMPH,Wind Direction,Wind SpeedMPH,Gust SpeedMPH,PrecipitationIn,Events,Conditions,WindDirDegrees,DateUTC
12:53 AM,44.1,10.0,25,29.94,10.0,SSW,4.6,-,N/A,,Clear,210,2012-10-09 06:53:00
1:53 AM,46.4,12.2,25,30.01,10.0,ESE,10.4,-,N/A,,Clear,110,2012-10-09 07:53:00
2:53 AM,46.0,12.0,25,29.91,10.0,ESE,12.7,-,N/A,,Clear,120,2012-10-09 08:53:00
3:53 AM,41.0,15.1,35,29.93,10.0,Calm,Calm,-,N/A,,Clear,0,2012-10-09 09:53:00
4:53 AM,37.9,10.9,33,29.94,10.0,ENE,5.8,-,N/A,,Clear,70,2012-10-09 10:53:00
5:53 AM,39.0,12.0,33,29.96,10.0,ESE,3.5,-,N/A,,Clear,110,2012-10-09 11:53:00
6:53 AM,37.9,14.0,38,29.98,10.0,East,3.5,-,N/A,,Clear,90,2012-10-09 12:53:00
7:53 AM,39.9,14.0,35,30.01,10.0,ENE,9.2,-,N/A,,Clear,70,2012-10-09 13:53:00
8:53 AM,45.0,18.0,34,30.03,10.0,Calm,Calm,-,N/A,,Clear,0,2012-10-09 14:53:00
9:53 AM,48.9,19.9,32,30.03,10.0,Calm,Calm,-,N/A,,Clear,0,2012-10-09 15:53:00
10:53 AM,57.0,18.0,22,30.00,10.0,Variable,3.5,-,N/A,,Clear,0,2012-10-09 16:53:00
11:53 AM,59.0,19.9,22,30.00,10.0,Calm,Calm,-,N/A,,Clear,0,2012-10-09 17:53:00
12:53 PM,64.9,19.9,18,29.96,10.0,Calm,Calm,-,N/A,,Clear,0,2012-10-09 18:53:00
1:53 PM,69.1,18.0,14,29.91,10.0,NW,6.9,-,N/A,,Clear,310,2012-10-09 19:53:00
2:53 PM,72.0,21.0,15,29.88,10.0,West,6.9,-,N/A,,Clear,270,2012-10-09 20:53:00
3:53 PM,72.0,19.9,14,29.88,10.0,Variable,5.8,-,N/A,,Clear,0,2012-10-09 21:53:00
4:53 PM,72.0,21.9,15,29.88,10.0,West,4.6,-,N/A,,Clear,280,2012-10-09 22:53:00
5:53 PM,72.0,23.0,16,29.88,10.0,Calm,Calm,-,N/A,,Clear,0,2012-10-09 23:53:00
6:53 PM,66.0,27.0,23,29.91,10.0,Calm,Calm,-,N/A,,Clear,0,2012-10-10 00:53:00
7:53 PM,57.9,18.0,21,29.94,10.0,ENE,6.9,-,N/A,,Clear,60,2012-10-10 01:53:00
8:53 PM,55.9,18.0,23,29.95,10.0,ENE,5.8,-,N/A,,Clear,60,2012-10-10 02:53:00
9:53 PM,55.0,19.9,25,29.96,10.0,East,4.6,-,N/A,,Clear,90,2012-10-10 03:53:00
10:53 PM,55.9,21.0,26,29.94,10.0,East,6.9,-,N/A,,Clear,80,2012-10-10 04:53:00
11:53 PM,52.0,21.0,30,29.96,10.0,ESE,8.1,-,N/A,,Clear,120,2012-10-10 05:53:00